Location: Newark
(45.0500°N, 41.9667°E)
Time: 01:33:30
(UTC+00:00)

Starlink (trailer) - Pass Details

Date: 28 July 2019
Orbit: 549 x 551 km, 53.0° (Epoch: 23 August)

Event Time Altitude Azimuth Distance (km) Brightness Sun altitude
Exits shadow 20:44:23 24° 278° (W) 1,172 5.4 -25.6°
Maximum altitude 20:46:30 44° 338° (NNW) 768 4.7 -25.6°
Drops below altitude 10° 20:50:30 10° 51° (NE) 1,828 6.6 -25.7°
Sets 20:52:49 0° 58° (ENE) 2,724 7.5 -25.8°
